This is the latest recevied weather packets stored in our database for station/object KM4KMS. If no packets are shown the sender has not sent any weather packets the latest 10 day(s).
| Time | Temp. | Humidity | Pressure | Rain* | Wind** | Luminosity | Snow |
|---|---|---|---|---|---|---|---|
| 1777309920 | 23.89° C | 65% | 1013.8 hPa | 0 mm | - | 195 W/m² | - |
| 1777309618 | 23.89° C | 65% | 1013.7 hPa | 0 mm | - | 180 W/m² | - |
| 1777309315 | 24.44° C | 65% | 1013.6 hPa | 0 mm | - | 240 W/m² | - |
| 1777309014 | 25° C | 65% | 1013.4 hPa | 0 mm | - | 459 W/m² | - |
| 1777308710 | 24.44° C | 66% | 1013.3 hPa | 0 mm | - | 493 W/m² | - |
| 1777308405 | 24.44° C | 65% | 1013.3 hPa | 0 mm | - | 626 W/m² | - |
| 1777308100 | 24.44° C | 65% | 1013.4 hPa | 0 mm | - | 545 W/m² | - |
| 1777307798 | 23.89° C | 66% | 1013.6 hPa | 0 mm | - | 535 W/m² | - |
| 1777307495 | 23.89° C | 68% | 1013.2 hPa | 0 mm | - | 475 W/m² | - |
| 1777307192 | 23.33° C | 69% | 1013.3 hPa | 0 mm | - | 382 W/m² | - |
| 1777306890 | 23.33° C | 69% | 1013.1 hPa | 0 mm | - | 313 W/m² | - |
| 1777306587 | 23.33° C | 69% | 1013.5 hPa | 0 mm | - | 455 W/m² | - |
| 1777306282 | 23.33° C | 70% | 1013.5 hPa | 0 mm | - | 521 W/m² | - |
| 1777305977 | 23.33° C | 69% | 1013.7 hPa | 0 mm | - | 546 W/m² | - |
| 1777305675 | 22.78° C | 71% | 1013.8 hPa | 0 mm | - | 524 W/m² | - |
| 1777305369 | 22.78° C | 71% | 1013.8 hPa | 0 mm | - | 367 W/m² | - |
| 1777305064 | 22.22° C | 71% | 1014.1 hPa | 0 mm | - | 335 W/m² | - |
| 1777304759 | 22.22° C | 71% | 1014.1 hPa | 0 mm | - | 368 W/m² | - |
| 1777304456 | 22.22° C | 71% | 1014.6 hPa | 0 mm | - | 386 W/m² | - |
| 1777304154 | 22.22° C | 73% | 1014.6 hPa | 0 mm | - | 371 W/m² | - |
| 1777303851 | 22.22° C | 71% | 1014.9 hPa | 0 mm | - | 366 W/m² | - |
| 1777303548 | 21.67° C | 72% | 1014.6 hPa | 0 mm | - | 374 W/m² | - |
| 1777303245 | 21.67° C | 72% | 1014.7 hPa | 0 mm | - | 416 W/m² | - |
| 1777302944 | 21.67° C | 71% | 1014.8 hPa | 0 mm | - | 431 W/m² | - |
| 1777302639 | 21.67° C | 72% | 1014.9 hPa | 0 mm | - | 420 W/m² | - |
* Rain latest hour (hover to see other rain measurements)
** Current wind speed in m/s (hover to see current wind gust speed)